Погода в Пудожгорском

Россия / Республика Карелия     62°19′01″N   35°55′51″E
темп.,
°C
ветер,
м/с
пор.,
м/с
влажн.,
%
обл.,
%
осадки,
мм/ч
давл.,
гПа
погр.,
м
20 апреля, вт
вт2000:00+1вюв278461 0.0 1032103
03:00−1юв278624 0.0 103189
06:00−1юв27820 0.0 1031126
09:00+5юв36630 0.0 1030443
12:00+7юв35525 0.0 10291141
15:00+8юв35505 0.0 10271286
18:00+7ююв365837 0.0 1025791
21:00+3вюв2576100 0.0 102472
21 апреля, ср
ср2100:00+2вюв3107573 0.0 1022186
03:00+1вюв3976100 0.0 1020169
06:00+1в3107811 0.0 1018220
09:00+5в41064100 0.0 1015538
12:00+6в4956100 0.0 1012848
15:00+6вюв4959100 0.0 10091117
18:00+3в41196100 1.4 1006676
21:00+2вюв41097100 1.9 1004605
22 апреля, чт
чт2200:00+2вюв4897100 0.6 1002546
03:00+1вюв2698100 1.6 1001295
06:00+1ю3897100 0.7 1002315
09:00+1ююз41096100 1.1 1003440
12:00+2ююз4998100 0.4 1005460
15:00+4юз577885 0.7 1006939
18:00+2юз4897100 0.2 1008489
21:00+2юз41097100 0.3 1009547
23 апреля, пт
пт2300:00+1ююз4109362 0.0 1010355
03:000ю279661 0.0 1012145
06:000юв269628 0.0 1012128
09:00+7юв4981100 0.0 1011418
12:00+9ююв51281100 0.0 1010770
15:00+11ююв61479100 0.4 10081527
18:00+4зсз1497100 1.6 1010186
21:00+3юз2298100 1.6 101149
24 апреля, сб
сб2400:00+3ссв1196100 0.0 100948
03:00+4всв3998100 1.3 1004368
06:00+7юв41391100 0.4 1002878
09:00+4ю51292100 2.1 1004653
12:00+4ю51092100 0.0 1006892
15:00+4ююз4886100 0.2 1008698
18:00+5ю2480100 0.1 1008597
21:00+3юз2592100 0.1 1008149